Regional Weather Roundup
Issued by NWS

Home | Current Version | Previous Version | Text Only | Print | Product List | Glossary On
Versions: 1 2 3 4 5 6 7 8 9 10 11 12 13 14 15 16 17 18 19 20 21 22 23 24 25 26 27 28 29 30 31 32 33 34 35 36 37 38 39 40 41 42 43 44 45 46 47 48 49 50
000
ASUS42 KTBW 171417
RWRFL
FLORIDA REGIONAL WEATHER ROUNDUP
NATIONAL WEATHER SERVICE TAMPA BAY RUSKIN FL
1000 AM EDT THU AUG 17 2017

NOTE: "FAIR" INDICATES FEW OR NO CLOUDS BELOW 12,000 FEET WITH NO
SIGNIFICANT WEATHER AND/OR OBSTRUCTIONS TO VISIBILITY.

FLZ001>010-012>015-112-114-115-171500-
PANHANDLE FLORIDA

CITY           SKY/WX    TMP DP  RH WIND       PRES   REMARKS
PENSACOLA      MOSUNNY   88  77  69 SW6       30.10R HX 100
PENSACOLA NAS  MOSUNNY   88  78  72 VRB3      30.10R HX 101
MILTON NAS     MOSUNNY   85  78  80 W6        30.11R HX  96
CRESTVIEW      SUNNY     85  76  74 W6        30.12S
DUKE FIELD     MOSUNNY   88  75  66 W3        30.11R HX  97
VALPARAISO     MOSUNNY   85  77  75 NW7       30.10R HX  96
MARY ESTHER    SUNNY     87  75  68 VRB5      30.09S HX  96
PANAMA CITY    FAIR      86  77  74 NW6       30.10S HX  97
TYNDALL AFB    MOSUNNY   84  77  79 W8        30.11R
APALACHICOLA   SUNNY     88  80  77 NW6       30.10S HX 104

STATION/POSITION SKY/WX   TEMP    WIND        PRES    WAVE   SWELL
                          AIR SEA DIR/SP/G            HT/PER HT/PER
                          (F)     (DEG/KT/KT) (MB)    (FT/S) (FT/S)
30.1N   87.6W              85 87  290/  8/  8 1018.9R   1/ 6
29.2N   88.2W              86 87  260/  6/  6 1019.5R   1/ 6   2/ 6
28.8N   86.0W              86 87  280/  4/  4 1019.3R   1/ 5   2/ 5
PANAMA CITY BEAC           84     300/  6/  8 1019.8S
TOWER C                    85                 1019.9R
28.5N   84.5W              84 86  280/  6/  8 1019.3R   1/ 6

$$
FLZ011-016>038-118-127-128-134-139-239-171500-
NORTH FLORIDA

CITY           SKY/WX    TMP DP  RH WIND       PRES   REMARKS
MARIANNA       SUNNY     84  77  79 NW7       30.10S
TALLAHASSEE    MOSUNNY   86  76  71 NW9       30.11R HX  96
PERRY          SUNNY    N/A N/A N/A NW5       30.11R
LIVE OAK       SUNNY     84  81  89 CALM      30.11S HX  98
CROSS CITY     CLOUDY    86  79  79 W9        30.14S HX  99
LAKE CITY      FAIR      84  81  89 W5        30.10R HX  98
GAINESVILLE    SUNNY     85  77  77 CALM      30.12R HX  95
WILLISTON      SUNNY     88  81  79 W7        30.10S HX 105
PALATKA        FAIR      84  82  94 W3        30.10R HX 101
MAYPORT NAS    MOSUNNY   87  78  74 W6        30.07R HX 100
JACKSONVILLE   MOSUNNY   87  78  74 NW3       30.07S HX 100
JAX NAS        MOSUNNY   86  78  77 NW3       30.09R HX  98
JAX CECIL      SUNNY     86  79  79 VRB5      30.08R HX  99
FERNANDINA BEA FAIR      88  77  70 W3        30.06S HX 100
ST AUGUSTINE   SUNNY     87  78  74 W5        30.09R HX 100
PALM COAST     SUNNY     84  81  89 W6        30.09R HX  98

STATION/POSITION SKY/WX   TEMP    WIND        PRES    WAVE   SWELL
                          AIR SEA DIR/SP/G            HT/PER HT/PER
                          (F)     (DEG/KT/KT) (MB)    (FT/S) (FT/S)
SHELL POINT      NOT AVBL
KEATON BEACH               85     300/  9/ 13 1018.9R
CEDAR KEY                  84     330/  6/  9 1019.8R
FERNANDINA                 87 86  290/  5/  6 1019.2R
30.7N   81.3W                 84                N/A     1/10
MAYPORT                    85 85  270/  6/  7 1018.9R
31.4N   80.9W              85 85  270/  8/ 10 1017.8R   1/ 8   2/ 8
ST AUGUSTINE               85 81  260/  5/  6 1019.1R

$$
FLZ040-043>046-052-053-057-058-063-144-171500-
INTERIOR CENTRAL FLORIDA

CITY           SKY/WX    TMP DP  RH WIND       PRES   REMARKS
OCALA          SUNNY     84  78  82 SW7       30.11R HX  95
THE VILLAGES     N/A     86  82  89 CALM      30.01S HX 105
LEESBURG       SUNNY     86  79  79 S3        30.11R HX  99
SANFORD        SUNNY     85  76  74 CALM      30.09F
ORLANDO EXEC   SUNNY     85  77  77 VRB5      30.10S HX  95
ORLANDO INTL   MOSUNNY   85  77  77 SW3       30.10S HX  95
KISSIMMEE      SUNNY     85  77  77 W3        30.12R HX  95
WINTER HAVEN   SUNNY     85  74  69 CALM      30.11S
LAKELAND       MOSUNNY   84  75  74 CALM      30.11S
BARTOW         MOSUNNY   84  72  65 CALM      30.11S
SEBRING        FAIR      87  75  68 CALM      30.10S HX  96
OKEECHOBEE     SUNNY     86  77  74 S3        30.10R HX  97

$$
FLZ041-047-054-059-064-141-147-171500-
EAST CENTRAL FLORIDA

CITY           SKY/WX    TMP DP  RH WIND       PRES   REMARKS
ORMOND BEACH   MOSUNNY   84  79  84 W7        30.09R HX  96
DAYTONA BEACH  MOSUNNY   86  80  82 VRB5      30.09S HX 101
DELAND         SUNNY     84  77  79 W3        30.09S
NEW SMYRNA BEA MOSUNNY   86  77  74 W6        30.11R HX  97
JFK SPACE CTR  SUNNY     85  79  82 SW7       30.08S HX  97
TITUSVILLE     SUNNY     86  79  79 VRB5      30.10S HX  99
CAPE CANAVERAL SUNNY     85  76  74 W6        30.09R HX  95
PATRICK AFB    SUNNY     86  76  72 W3        30.10R HX  95
MELBOURNE      SUNNY     86  76  71 VRB5      30.10S HX  96
VERO BEACH     SUNNY     87  76  69 CALM      30.10S HX  97
FT PIERCE      MOSUNNY   85  78  80 SW5       30.10R HX  96
STUART         MOSUNNY   90  77  66 VRB3      30.10S HX 102

STATION/POSITION SKY/WX   TEMP    WIND        PRES    WAVE   SWELL
                          AIR SEA DIR/SP/G            HT/PER HT/PER
                          (F)     (DEG/KT/KT) (MB)    (FT/S) (FT/S)
28.5N   80.2W              83 86  250/  6/  6 1020.7R   1/ 8   2/ 8
28.9N   78.5W              85 86  240/ 10/ 12 1018.8F   2/ 9   2/ 9
TRIDENT PIER               85 83  220/  5/  6 1020.9R
28.4N   80.5W                 83                N/A     1
27.5N   80.2W                 82                N/A     1/ 9

$$
FLZ050-056-061-142-242-148-248-149-249-151-251-155-255-
160-260-171500-
WEST CENTRAL FLORIDA

CITY           SKY/WX    TMP DP  RH WIND       PRES   REMARKS
CRYSTAL RIVER  FAIR      86  77  74 SE3       30.11R HX  97
INVERNESS      FAIR      84  81  89 CALM      30.11S HX  98
BROOKSVILLE    SUNNY     84  77  79 CALM      30.11S
CLEARWATER AIR PTSUNNY   86  75  70 E3        30.09S HX  95
ST PETE CLEARW MOSUNNY   89  77  67 VRB5      30.09S HX 101
TAMPA INTL     MOSUNNY   87  76  69 CALM      30.10S HX  97
TAMPA EXEC     SUNNY     90  77  66 CALM      30.11R HX 102
PLANT CITY     SUNNY     88  79  74 CALM      30.12S HX 102
MACDILL AFB    SUNNY     90  81  75 NE5       30.10R HX 108
PETER O KNIGHT CLOUDY    88  79  74 CALM      30.10S HX 102
ST PETERSBURG  SUNNY     87  76  69 SE3       30.08S HX  97
SARASOTA       SUNNY     87  75  67 NE3       30.08S HX  96
VENICE         FAIR      86  75  70 SE5       30.10S HX  95

STATION/POSITION SKY/WX   TEMP    WIND        PRES    WAVE   SWELL
                          AIR SEA DIR/SP/G            HT/PER HT/PER
                          (F)     (DEG/KT/KT) (MB)    (FT/S) (FT/S)
CLEARWATER BEACH           88 89  140/  1/  2 1019.3R
MIDDLE TAMPA BAY           85      60/  1/  3 1019.1F
VENICE                     86 89  110/  2/  2 1019.0F

$$
FLZ066-069-070-075>078-162-262-165-265-171500-
SOUTHWEST FLORIDA AND KEYS

CITY           SKY/WX    TMP DP  RH WIND       PRES   REMARKS
PUNTA GORDA    SUNNY     86  75  69 CALM      30.11R HX  95
FT MYERS       SUNNY     86  78  77 VRB3      30.09R HX  98
SOUTHWEST INTL SUNNY     85  76  74 SE5       30.09R
NAPLES         SUNNY     86  76  71 CALM      30.08S HX  96
MARCO ISLAND   SUNNY     88  77  70 E3        30.08F HX 100
IMMOKALEE      FAIR      86  79  79 CALM      30.10R HX  99
MARATHON       MOSUNNY   90  79  70 SE8       30.08R HX 106
KEY WEST NAS   MOSUNNY   88  79  74 SE9       30.07S HX 103
KEY WEST INTL  SUNNY     89  76  65 E9        30.08R HX 100

STATION/POSITION SKY/WX   TEMP    WIND        PRES    WAVE   SWELL
                          AIR SEA DIR/SP/G            HT/PER HT/PER
                          (F)     (DEG/KT/KT) (MB)    (FT/S) (FT/S)
NAPLES                        89   90/  4/  5 1018.6R
DRY TORTUGAS               86     120/  8/  9 1018.6R
SAND KEY                   86     120/ 10/ 12 1018.9R
MOLASSES REEF              86 87  100/  9/ 10 1019.1R

$$
FLZ067-068-071>074-168-172>174-171500-
SOUTHEAST FLORIDA

CITY           SKY/WX    TMP DP  RH WIND       PRES   REMARKS
W PALM BEACH   MOSUNNY   92  76  59 E5        30.09R HX 104
BOCA RATON     MOSUNNY   88  77  70 NE9       30.08S HX 100
FT LAUDER-EXEC MOSUNNY   89  76  65 NE7       30.07S HX 100
FT LAUDERDALE  MOSUNNY   89  76  65 E7        30.07S HX 100
POMPANO BEACH  SUNNY     89  76  65 NE9       30.08S HX 100
PEMBROKE PINES SUNNY     90  75  61 N7        30.09S HX 100
OPA LOCKA      SUNNY     90  77  65 VRB5      30.08R HX 103
MIAMI          MOSUNNY   90  74  59 E7        30.08R HX  99
WEST KENDALL   PTSUNNY   90  75  61 E8        30.08R HX 100
HOMESTEAD      MOSUNNY   88  79  74 NE7       30.08R HX 102

STATION/POSITION SKY/WX   TEMP    WIND        PRES    WAVE   SWELL
                          AIR SEA DIR/SP/G            HT/PER HT/PER
                          (F)     (DEG/KT/KT) (MB)    (FT/S) (FT/S)
PORT EVERGLADES            87      40/  5/  9 1018.5S
VIRGINIA KEY               87 90   50/  6/  8 1018.2R
LAKE WORTH                         40/  3/  5   N/A
FOWEY ROCKS                86 87   60/  9/  9 1019.4R
SETTLEMENT POINT           85      20/  3/  4 1019.4R

$$




USA.gov is the U.S. government's official web portal to all federal, state and local government web resources and services.